Location: Evergreen Manor
(41.4083°N, 81.4939°W)
Time: 03:33:20
(UTC+00:00)

Cosmos 1140 Rocket - Pass Details

Date: 11 December 2019
Orbit: 744 x 768 km, 74.1° (Epoch: 27 January)

Event Time Altitude Azimuth Distance (km) Brightness Sun altitude
Exits shadow 10:56:07 31° 252° (WSW) 1,320 4.3 -19.1°
Drops below altitude 10° 11:00:18 10° 199° (SSW) 2,294 5.9 -18.4°
Sets 11:02:53 0° 189° (S) 3,218 6.8 -17.9°
